period_start,C,m1,H,J0,J1,J2,J3,J4,J5,JA,JB,JC,JD,JJ,JK,JN,#
2014-03-28 00:00:40,0.15,1.80,0.00,16.34,21.97,24.92,6.14,32.29,1007.34,2058.99,2851.05,2833.19,3087.01,350.06,328.45,10.82,0000 0000 0000 0000 000000
2014-03-28 00:01:40,0.09,1.80,0.00,16.32,21.97,24.93,5.96,32.17,1007.34,2059.00,2851.00,2833.07,3087.00,349.16,327.63,10.83,0000 0000 0000 0000 000000
2014-03-28 00:02:40,0.05,1.80,0.00,16.32,21.97,24.93,6.02,32.38,1007.34,2059.01,2850.79,2833.02,3086.99,350.19,328.60,10.83,0000 0000 0000 0000 000000
2014-03-28 00:03:40,0.06,1.80,0.00,16.32,21.97,24.92,6.09,32.38,1007.34,2059.01,2850.40,2833.00,3086.92,350.02,328.44,10.84,0000 0000 0000 0000 000000
2014-03-28 00:04:40,0.07,1.80,0.00,16.32,21.95,24.93,6.22,32.38,1007.34,2059.00,2850.15,2833.00,3086.72,350.94,329.07,10.84,0000 0000 0000 0000 000000
2014-03-28 00:05:41,0.08,1.80,0.00,16.32,21.95,24.95,6.16,32.63,1007.33,2059.01,2850.05,2832.97,3086.36,349.75,328.18,10.85,0000 0000 0000 0000 000000
2014-03-28 00:06:41,0.07,1.80,0.00,16.32,21.94,24.94,6.34,32.58,1007.34,2059.02,2850.01,2832.92,3086.17,350.49,328.88,10.86,0000 0000 0000 0000 000000
2014-03-28 00:07:41,0.06,1.80,0.00,16.32,21.94,24.94,6.20,32.33,1007.34,2059.01,2849.89,2832.64,3086.06,349.92,328.34,10.86,0000 0000 0000 0000 000000
2014-03-28 00:08:41,0.11,1.81,0.00,16.32,21.94,24.94,6.17,32.50,1007.34,2059.04,2849.46,2832.28,3086.01,350.21,328.62,10.87,0000 0000 0000 0000 000000
2014-03-28 00:09:42,0.18,1.81,0.00,16.32,21.93,24.92,6.07,32.38,1007.34,2059.06,2849.17,2832.11,3086.00,350.11,328.52,10.87,0000 0000 0000 0000 000000
2014-03-28 00:10:42,0.12,1.81,0.00,16.32,21.92,24.91,6.12,32.46,1007.34,2059.07,2849.07,2832.04,3085.97,350.01,328.43,10.88,0000 0000 0000 0000 000000
2014-03-28 00:11:42,0.04,1.81,0.00,16.32,21.92,24.92,6.00,32.38,1007.33,2059.07,2849.01,2832.01,3085.68,349.46,328.20,10.88,0000 0000 0000 0000 000000
2014-03-28 00:12:42,0.05,1.81,0.00,16.31,21.92,24.91,6.21,32.46,1007.31,2059.11,2848.99,2831.99,3085.37,349.66,328.10,10.89,0000 0000 0000 0000 000000
2014-03-28 00:13:43,0.11,1.81,0.00,16.32,21.92,24.87,6.17,32.38,1007.31,2059.28,2848.84,2831.97,3085.17,350.51,328.88,10.90,0000 0000 0000 0000 000000
2014-03-28 00:14:43,0.20,1.81,0.00,16.32,21.91,24.85,6.12,32.38,1007.33,2059.38,2848.40,2831.90,3085.07,350.56,328.94,10.90,0000 0000 0000 0000 000000
2014-03-28 00:15:43,0.15,1.81,0.00,16.32,21.90,24.88,6.12,32.46,1007.33,2059.37,2848.15,2831.61,3085.01,350.14,328.55,10.91,0000 0000 0000 0000 000000
2014-03-28 00:16:44,0.11,1.81,0.00,16.32,21.89,24.90,6.13,32.42,1007.33,2059.39,2848.05,2831.24,3085.00,349.85,328.29,10.91,0000 0000 0000 0000 000000
2014-03-28 00:17:44,0.16,1.81,0.00,16.29,21.89,24.94,6.03,32.50,1007.31,2059.44,2848.02,2831.09,3084.99,349.57,327.86,10.92,0000 0000 0000 0000 000000
2014-03-28 00:18:44,0.05,1.81,0.00,16.31,21.89,24.93,6.01,32.46,1007.34,2059.47,2847.97,2831.03,3084.92,349.43,327.75,10.93,0000 0000 0000 0000 000000
2014-03-28 00:19:45,0.09,1.81,0.00,16.31,21.88,24.92,6.08,32.33,1007.31,2059.62,2847.73,2831.01,3084.63,350.02,328.45,10.93,0000 0000 0000 0000 000000
2014-03-28 00:20:45,0.20,1.81,0.00,16.30,21.87,24.91,6.11,32.25,1007.31,2059.64,2847.30,2831.00,3084.28,350.79,329.18,10.94,0000 0000 0000 0000 000000
2014-03-28 00:21:45,0.14,1.81,0.00,16.29,21.87,24.89,6.11,32.38,1007.33,2059.62,2847.11,2830.99,3084.11,350.33,328.75,10.94,0000 0000 0000 0000 000000
2014-03-28 00:22:45,0.06,1.82,0.00,16.29,21.87,24.89,6.25,32.38,1007.34,2059.63,2847.02,2830.87,3084.04,350.96,329.35,10.95,0000 0000 0000 0000 000000
2014-03-28 00:23:46,0.08,1.82,0.00,16.29,21.87,24.86,6.28,32.29,1007.34,2059.68,2846.99,2830.46,3084.00,350.72,329.22,10.95,0000 0000 0000 0000 000000
2014-03-28 00:24:46,0.13,1.82,0.00,16.29,21.86,24.86,6.10,32.38,1007.34,2059.66,2846.70,2830.19,3083.98,349.81,328.61,10.96,0000 0000 0000 0000 000000
2014-03-28 00:25:46,0.13,1.82,0.00,16.29,21.85,24.82,6.09,32.63,1007.34,2059.75,2846.32,2830.08,3083.83,349.75,328.07,10.97,0000 0000 0000 0000 000000
2014-03-28 00:26:46,0.19,1.82,0.00,16.29,21.85,24.84,6.15,32.58,1007.34,2059.85,2846.11,2830.03,3083.40,350.60,329.01,10.97,0000 0000 0000 0000 000000
2014-03-28 00:27:47,0.13,1.82,0.00,16.29,21.84,24.83,6.13,32.29,1007.34,2059.79,2846.04,2830.01,3083.17,350.04,328.73,10.98,0000 0000 0000 0000 000000
2014-03-28 00:28:47,0.05,1.82,0.00,16.29,21.84,24.84,6.08,32.50,1007.34,2059.86,2845.92,2829.99,3083.07,350.07,328.37,10.98,0000 0000 0000 0000 000000
2014-03-28 00:29:47,0.09,1.82,0.00,16.29,21.84,24.83,6.10,32.54,1007.33,2059.86,2845.43,2829.84,3083.03,349.94,328.72,10.99,0000 0000 0000 0000 000000
2014-03-28 00:30:47,0.15,1.82,0.00,16.29,21.83,24.84,6.16,32.25,1007.34,2059.89,2845.15,2829.42,3083.00,350.46,328.72,11.00,0000 0000 0000 0000 000000
2014-03-28 00:31:48,0.18,1.82,0.00,16.29,21.82,24.84,6.07,32.42,1007.34,2059.95,2845.05,2829.16,3082.97,349.90,328.36,11.00,0000 0000 0000 0000 000000
2014-03-28 00:32:48,0.13,1.82,0.00,16.29,21.82,24.83,6.17,32.54,1007.34,2059.96,2845.00,2829.06,3082.69,349.59,328.06,11.01,0000 0000 0000 0000 000000
2014-03-28 00:33:48,0.08,1.82,0.00,16.29,21.82,24.84,6.15,32.29,1007.34,2059.97,2844.86,2829.02,3082.39,350.18,328.62,11.01,0000 0000 0000 0000 000000
2014-03-28 00:34:49,0.09,1.82,0.00,16.28,21.82,24.84,6.18,32.42,1007.34,2059.97,2844.48,2829.00,3082.17,349.74,328.23,11.02,0000 0000 0000 0000 000000
2014-03-28 00:35:49,0.09,1.82,0.00,16.27,21.82,24.86,6.07,32.42,1007.34,2059.98,2844.20,2828.99,3082.08,349.42,327.93,11.03,0000 0000 0000 0000 000000
2014-03-28 00:36:49,0.07,1.82,0.00,16.27,21.81,24.82,6.07,32.42,1007.34,2059.99,2844.07,2828.96,3082.03,348.95,327.59,11.03,0000 0000 0000 0000 000000
2014-03-28 00:37:49,0.04,1.82,0.00,16.27,21.80,24.82,5.94,32.21,1007.34,2059.97,2844.00,2828.64,3082.00,349.26,327.78,11.04,0000 0000 0000 0000 000000
2014-03-28 00:38:50,0.09,1.83,0.00,16.27,21.79,24.84,6.15,32.46,1007.34,2059.98,2843.85,2828.28,3081.83,350.21,328.67,11.04,0000 0000 0000 0000 000000
2014-03-28 00:39:50,0.15,1.83,0.00,16.27,21.79,24.82,6.15,32.38,1007.34,2059.98,2843.42,2828.10,3081.47,350.08,328.55,11.05,0000 0000 0000 0000 000000
2014-03-28 00:40:51,0.16,1.83,0.00,16.27,21.79,24.81,6.07,32.13,1007.34,2059.99,2843.16,2828.03,3081.20,349.94,328.64,11.05,0000 0000 0000 0000 000000
2014-03-28 00:41:51,0.11,1.83,0.00,16.27,21.79,24.83,6.16,32.42,1007.34,2059.99,2843.05,2828.00,3081.07,350.58,329.02,11.06,0000 0000 0000 0000 000000
2014-03-28 00:42:51,0.04,1.83,0.00,16.28,21.79,24.83,5.97,32.25,1007.34,2059.99,2843.00,2827.98,3081.02,349.58,328.07,11.07,0000 0000 0000 0000 000000
2014-03-28 00:43:51,0.03,1.83,0.00,16.27,21.79,24.83,6.28,32.63,1007.34,2059.99,2842.86,2827.85,3080.99,350.36,328.51,11.07,0000 0000 0000 0000 000000
2014-03-28 00:44:51,0.07,1.83,0.00,16.28,21.78,24.80,6.10,32.46,1007.34,2059.99,2842.40,2827.63,3080.97,350.01,328.54,11.08,0000 0000 0000 0000 000000
2014-03-28 00:45:52,0.12,1.83,0.00,16.27,21.77,24.79,6.18,32.54,1007.34,2059.99,2842.15,2827.31,3080.86,350.61,329.04,11.08,0000 0000 0000 0000 000000
2014-03-28 00:46:52,0.13,1.83,0.00,16.27,21.77,24.79,6.08,32.58,1007.34,2059.98,2842.05,2827.12,3080.48,349.49,328.27,11.09,0000 0000 0000 0000 000000
2014-03-28 00:47:52,0.12,1.83,0.00,16.27,21.77,24.78,6.14,32.33,1007.34,2059.99,2841.99,2827.04,3080.17,350.21,328.54,11.10,0000 0000 0000 0000 000000
2014-03-28 00:48:52,0.07,1.83,0.00,16.28,21.77,24.80,6.21,32.42,1007.34,2059.99,2841.63,2827.01,3080.06,349.04,327.57,11.10,0000 0000 0000 0000 000000
2014-03-28 00:49:53,0.08,1.83,0.00,16.29,21.77,24.79,6.13,32.58,1007.34,2059.99,2841.24,2826.95,3080.01,350.55,328.97,11.11,0000 0000 0000 0000 000000
2014-03-28 00:50:53,0.08,1.83,0.00,16.28,21.77,24.78,6.29,32.58,1007.34,2059.99,2841.08,2826.72,3079.97,351.08,329.48,11.11,0000 0000 0000 0000 000000
2014-03-28 00:51:53,0.10,1.83,0.00,16.28,21.77,24.77,6.14,32.50,1007.34,2059.99,2840.99,2826.38,3079.84,349.45,327.94,11.12,0000 0000 0000 0000 000000
2014-03-28 00:52:53,0.13,1.83,0.00,16.29,21.76,24.82,5.93,32.42,1007.34,2059.99,2840.73,2826.15,3079.44,349.70,328.17,11.12,0000 0000 0000 0000 000000
2014-03-28 00:53:54,0.18,1.84,0.00,16.29,21.75,24.83,6.13,32.54,1007.34,2059.99,2840.31,2826.05,3079.18,349.74,328.21,11.13,0000 0000 0000 0000 000000
2014-03-28 00:54:54,0.11,1.84,0.00,16.29,21.75,24.84,5.98,32.38,1007.34,2059.99,2840.11,2826.02,3079.07,349.57,328.05,11.14,0000 0000 0000 0000 000000
2014-03-28 00:55:54,0.05,1.84,0.00,16.27,21.74,24.80,6.13,32.13,1007.35,2059.99,2840.03,2825.99,3079.02,349.60,328.14,11.14,0000 0000 0000 0000 000000
2014-03-28 00:56:54,0.02,1.84,0.00,16.27,21.74,24.81,6.19,32.29,1007.35,2059.99,2839.97,2825.94,3078.98,350.44,329.05,11.15,0000 0000 0000 0000 000000
2014-03-28 00:57:55,0.03,1.84,0.00,16.27,21.74,24.80,6.26,32.50,1007.35,2059.99,2839.63,2825.74,3078.92,350.58,329.01,11.15,0000 0000 0000 0000 000000
2014-03-28 00:58:55,0.16,1.84,0.00,16.28,21.74,24.82,6.17,32.13,1007.34,2059.99,2839.24,2825.33,3078.51,350.66,328.83,11.16,0000 0000 0000 0000 000000
2014-03-28 00:59:55,0.22,1.84,0.00,16.29,21.74,24.78,6.17,32.42,1007.35,2059.99,2839.08,2825.12,3078.23,349.99,328.45,11.17,0000 0000 0000 0000 000000
2014-03-28 01:00:55,0.11,1.84,0.00,16.29,21.74,24.80,6.25,32.46,1007.35,2059.99,2839.00,2825.04,3078.10,350.47,328.42,11.17,0000 0000 0000 0000 000000
2014-03-28 01:01:56,0.05,1.84,0.00,16.29,21.73,24.82,6.18,32.50,1007.35,2059.99,2838.77,2825.01,3078.03,349.98,328.44,11.18,0000 0000 0000 0000 000000
2014-03-28 01:02:56,0.07,1.84,0.00,16.29,21.72,24.79,5.97,32.46,1007.34,2059.99,2838.34,2824.98,3077.99,349.57,327.77,11.18,0000 0000 0000 0000 000000
2014-03-28 01:03:56,0.08,1.84,0.00,16.29,21.72,24.76,6.08,32.17,1007.34,2059.99,2838.13,2824.90,3077.92,350.33,328.71,11.19,0000 0000 0000 0000 000000
2014-03-28 01:04:57,0.09,1.84,0.00,16.29,21.72,24.77,6.18,32.29,1007.34,2059.99,2838.04,2824.48,3077.56,350.15,328.45,11.20,0000 0000 0000 0000 000000
2014-03-28 01:05:57,0.19,1.84,0.00,16.29,21.72,24.77,6.03,32.63,1007.34,2059.99,2837.73,2824.19,3077.23,350.68,328.98,11.20,0000 0000 0000 0000 000000
2014-03-28 01:06:57,0.18,1.84,0.00,16.29,21.72,24.77,6.14,32.17,1007.35,2060.01,2837.36,2824.07,3077.08,350.25,328.69,11.21,0000 0000 0000 0000 000000
2014-03-28 01:07:58,0.11,1.84,0.00,16.29,21.72,24.79,6.23,32.46,1007.34,2060.03,2837.15,2824.03,3077.03,350.31,328.74,11.21,0000 0000 0000 0000 000000
2014-03-28 01:08:58,0.07,1.84,0.00,16.29,21.72,24.78,6.03,32.46,1007.34,2060.02,2837.04,2824.01,3077.00,349.65,328.12,11.22,0000 0000 0000 0000 000000
2014-03-28 01:09:58,0.02,1.84,0.00,16.29,21.72,24.78,6.22,32.42,1007.34,2060.02,2836.79,2823.93,3076.96,350.44,328.86,11.22,0000 0000 0000 0000 000000
2014-03-28 01:10:58,0.09,1.85,0.00,16.29,21.71,24.81,6.27,32.46,1007.36,2060.03,2836.38,2823.60,3076.68,349.70,328.37,11.23,0000 0000 0000 0000 000000
2014-03-28 01:11:58,0.21,1.85,0.00,16.29,21.71,24.80,6.07,32.63,1007.35,2060.02,2836.13,2823.25,3076.27,349.01,327.52,11.24,0000 0000 0000 0000 000000
2014-03-28 01:12:59,0.17,1.85,0.00,16.30,21.70,24.82,6.19,32.50,1007.35,2060.04,2836.03,2823.09,3076.10,350.68,329.07,11.24,0000 0000 0000 0000 000000
2014-03-28 01:13:59,0.09,1.85,0.00,16.30,21.70,24.82,6.14,32.58,1007.34,2060.03,2835.86,2823.02,3076.03,350.28,328.79,11.25,0000 0000 0000 0000 000000
2014-03-28 01:14:59,0.07,1.85,0.00,16.29,21.69,24.80,6.12,32.25,1007.36,2060.04,2835.42,2823.00,3075.98,350.07,328.11,11.25,0000 0000 0000 0000 000000
2014-03-28 01:15:59,0.09,1.85,0.00,16.30,21.69,24.80,6.08,32.50,1007.37,2060.06,2835.17,2822.92,3075.68,349.89,328.35,11.26,0000 0000 0000 0000 000000
2014-03-28 01:17:00,0.14,1.85,0.00,16.31,21.69,24.80,6.17,32.42,1007.34,2060.03,2835.05,2822.62,3075.32,350.02,328.45,11.27,0000 0000 0000 0000 000000
2014-03-28 01:18:00,0.13,1.85,0.00,16.32,21.69,24.80,6.22,32.54,1007.34,2060.02,2835.01,2822.33,3075.16,350.78,328.78,11.27,0000 0000 0000 0000 000000
2014-03-28 01:19:00,0.09,1.85,0.00,16.32,21.69,24.79,5.97,32.38,1007.35,2060.03,2834.91,2822.14,3075.06,349.97,328.40,11.28,0000 0000 0000 0000 000000
2014-03-28 01:20:00,0.09,1.85,0.00,16.31,21.69,24.78,6.00,32.29,1007.35,2060.04,2834.51,2822.05,3075.02,348.92,327.41,11.28,0000 0000 0000 0000 000000
2014-03-28 01:21:01,0.10,1.85,0.00,16.31,21.69,24.80,6.02,32.46,1007.35,2060.04,2834.19,2822.01,3075.00,349.40,327.87,11.29,0000 0000 0000 0000 000000
2014-03-28 01:22:01,0.06,1.85,0.00,16.31,21.69,24.78,6.03,32.50,1007.34,2060.04,2834.06,2821.98,3074.89,349.82,328.04,11.29,0000 0000 0000 0000 000000
2014-03-28 01:23:01,0.05,1.85,0.00,16.31,21.69,24.76,6.21,32.54,1007.35,2060.06,2833.85,2821.72,3074.46,349.84,328.31,11.30,0000 0000 0000 0000 000000
2014-03-28 01:24:01,0.21,1.85,0.00,16.31,21.69,24.79,6.17,32.67,1007.37,2060.05,2833.42,2821.34,3074.17,350.55,329.20,11.31,0000 0000 0000 0000 000000
2014-03-28 01:25:02,0.21,1.86,0.00,16.32,21.69,24.79,6.06,32.46,1007.35,2060.03,2833.18,2821.13,3074.06,349.75,328.34,11.31,0000 0000 0000 0000 000000
2014-03-28 01:26:02,0.08,1.86,0.00,16.32,21.69,24.81,6.13,32.38,1007.41,2060.08,2833.06,2821.05,3074.01,350.29,328.84,11.32,0000 0000 0000 0000 000000
2014-03-28 01:27:02,0.08,1.86,0.00,16.32,21.69,24.80,6.22,32.42,1007.36,2060.08,2832.94,2821.00,3073.96,349.94,328.37,11.32,0000 0000 0000 0000 000000
2014-03-28 01:28:02,0.02,1.86,0.00,16.32,21.69,24.82,6.16,32.46,1007.37,2060.08,2832.52,2820.98,3073.67,350.25,328.63,11.33,0000 0000 0000 0000 000000
2014-03-28 01:29:03,0.13,1.86,0.00,16.32,21.69,24.81,6.09,32.46,1007.39,2060.07,2832.20,2820.72,3073.30,349.85,328.29,11.34,0000 0000 0000 0000 000000
2014-03-28 01:30:03,0.17,1.86,0.00,16.34,21.69,24.78,6.24,32.63,1007.39,2060.08,2832.07,2820.32,3073.11,350.48,328.87,11.34,0000 0000 0000 0000 000000
2014-03-28 01:31:03,0.19,1.86,0.00,16.34,21.69,24.77,6.13,32.63,1007.41,2060.08,2831.83,2820.11,3073.03,349.68,328.11,11.35,0000 0000 0000 0000 000000
2014-03-28 01:32:03,0.06,1.86,0.00,16.34,21.69,24.80,6.23,32.67,1007.38,2060.07,2831.34,2820.04,3072.97,350.08,328.48,11.35,0000 0000 0000 0000 000000
2014-03-28 01:33:03,0.09,1.86,0.00,16.34,21.69,24.78,6.20,32.63,1007.42,2060.06,2831.12,2820.00,3072.82,350.01,328.43,11.36,0000 0000 0000 0000 000000
2014-03-28 01:34:04,0.06,1.86,0.00,16.34,21.68,24.80,6.30,32.63,1007.39,2060.09,2831.03,2819.94,3072.41,350.80,329.00,11.37,0000 0000 0000 0000 000000
2014-03-28 01:35:04,0.14,1.86,0.00,16.34,21.68,24.81,6.03,32.50,1007.45,2060.06,2830.70,2819.57,3072.16,349.78,328.29,11.37,0000 0000 0000 0000 000000
2014-03-28 01:36:04,0.17,1.86,0.00,16.34,21.68,24.78,6.23,32.54,1007.44,2060.06,2830.27,2819.23,3072.05,350.33,328.01,11.38,0000 0000 0000 0000 000000
2014-03-28 01:37:04,0.17,1.86,0.00,16.34,21.68,24.78,6.10,32.58,1007.44,2060.10,2830.09,2819.08,3072.01,350.28,328.69,11.38,0000 0000 0000 0000 000000
2014-03-28 01:38:05,0.08,1.86,0.00,16.34,21.67,24.77,6.24,32.46,1007.44,2060.11,2829.96,2819.02,3071.95,350.63,329.04,11.39,0000 0000 0000 0000 000000
2014-03-28 01:39:05,0.07,1.86,0.00,16.35,21.67,24.76,6.16,32.42,1007.43,2060.10,2829.51,2818.99,3071.55,349.52,327.80,11.39,0000 0000 0000 0000 000000
2014-03-28 01:40:05,0.12,1.87,0.00,16.37,21.67,24.79,6.32,32.54,1007.52,2060.08,2829.19,2818.76,3071.21,351.07,329.42,11.40,0000 0000 0000 0000 000000
2014-03-28 01:41:05,0.18,1.87,0.00,16.37,21.67,24.81,6.12,32.58,1007.53,2060.08,2829.06,2818.39,3071.07,349.89,328.32,11.41,0000 0000 0000 0000 000000
2014-03-28 01:42:05,0.11,1.87,0.00,16.37,21.67,24.81,6.19,32.54,1007.60,2060.07,2828.83,2818.15,3071.02,349.56,328.03,11.41,0000 0000 0000 0000 000000
2014-03-28 01:43:05,0.11,1.87,0.00,16.37,21.67,24.82,6.14,32.54,1007.60,2060.07,2828.37,2818.04,3071.00,349.98,328.60,11.42,0000 0000 0000 0000 000000
2014-03-28 01:44:06,0.11,1.87,0.00,16.37,21.67,24.85,6.11,32.46,1007.67,2060.08,2828.14,2818.01,3070.93,350.14,328.74,11.42,0000 0000 0000 0000 000000
2014-03-28 01:45:06,0.07,1.87,0.00,16.37,21.67,24.83,6.23,32.58,1007.68,2060.05,2828.05,2817.95,3070.55,350.64,329.09,11.43,0000 0000 0000 0000 000000
2014-03-28 01:46:06,0.04,1.87,0.00,16.37,21.67,24.81,6.10,32.04,1007.66,2060.07,2828.00,2817.81,3070.26,349.93,328.44,11.44,0000 0000 0000 0000 000000
2014-03-28 01:47:06,0.14,1.87,0.00,16.37,21.67,24.81,6.15,32.17,1007.64,2060.09,2827.88,2817.46,3070.11,349.69,328.41,11.44,0000 0000 0000 0000 000000
2014-03-28 01:48:06,0.15,1.87,0.00,16.38,21.67,24.84,6.14,32.50,1007.68,2060.13,2827.42,2817.22,3070.04,349.82,328.62,11.45,0000 0000 0000 0000 000000
2014-03-28 01:49:06,0.19,1.87,0.00,16.39,21.67,24.82,6.10,32.54,1007.68,2060.18,2827.15,2817.08,3070.01,349.79,328.22,11.45,0000 0000 0000 0000 000000
2014-03-28 01:50:07,0.09,1.87,0.00,16.39,21.67,24.82,6.09,32.33,1007.71,2060.23,2827.00,2817.03,3069.96,349.96,328.42,11.46,0000 0000 0000 0000 000000
2014-03-28 01:51:07,0.13,1.87,0.00,16.39,21.67,24.82,6.21,32.54,1007.78,2060.28,2826.56,2816.99,3069.69,349.99,328.54,11.46,0000 0000 0000 0000 000000
2014-03-28 01:52:07,0.12,1.87,0.00,16.39,21.67,24.82,6.05,32.42,1007.76,2060.50,2826.21,2816.88,3069.37,350.21,328.51,11.47,0000 0000 0000 0000 000000
2014-03-28 01:53:07,0.37,1.88,0.00,16.40,21.67,24.82,6.07,32.33,1007.74,2060.59,2826.07,2816.46,3069.14,349.53,328.69,11.48,0000 0000 0000 0000 000000
2014-03-28 01:54:07,0.26,1.88,0.00,16.39,21.67,24.82,6.18,32.46,1007.68,2060.61,2825.96,2816.19,3069.05,350.20,328.63,11.48,0000 0000 0000 0000 000000
2014-03-28 01:55:08,0.10,1.88,0.00,16.40,21.67,24.84,6.13,32.54,1007.63,2060.61,2825.62,2816.07,3069.02,350.73,329.10,11.49,0000 0000 0000 0000 000000
2014-03-28 01:56:08,0.06,1.88,0.00,16.42,21.67,24.83,6.02,32.38,1007.65,2060.67,2825.31,2816.02,3068.94,350.13,328.54,11.49,0000 0000 0000 0000 000000
2014-03-28 01:57:08,0.14,1.88,0.00,16.42,21.67,24.83,6.22,32.58,1007.71,2060.75,2825.11,2815.99,3068.62,350.68,329.06,11.50,0000 0000 0000 0000 000000
2014-03-28 01:58:08,0.16,1.88,0.00,16.42,21.67,24.82,6.09,32.33,1007.74,2060.85,2824.98,2815.92,3068.30,349.07,327.57,11.51,0000 0000 0000 0000 000000
2014-03-28 01:59:08,0.15,1.88,0.00,16.42,21.67,24.83,6.02,32.63,1007.78,2060.86,2824.52,2815.52,3068.11,349.95,328.40,11.51,0000 0000 0000 0000 000000
2014-03-28 02:00:09,0.25,1.88,0.00,16.42,21.67,24.83,6.13,32.50,1007.79,2060.86,2824.24,2815.21,3068.04,350.22,328.66,11.52,0000 0000 0000 0000 000000
2014-03-28 02:01:09,0.12,1.88,0.00,16.42,21.67,24.83,6.10,32.38,1007.80,2060.75,2824.08,2815.08,3068.00,349.85,328.31,11.52,0000 0000 0000 0000 000000
2014-03-28 02:02:09,-0.07,1.88,0.00,16.43,21.67,24.86,6.08,32.58,1007.81,2060.74,2824.03,2815.03,3067.81,349.82,328.47,11.53,0000 0000 0000 0000 000000
2014-03-28 02:03:09,0.07,1.88,0.00,16.44,21.67,24.84,6.37,32.63,1007.81,2060.85,2823.85,2815.00,3067.43,350.19,328.49,11.53,0000 0000 0000 0000 000000
2014-03-28 02:04:09,0.20,1.89,0.00,16.44,21.67,24.84,6.18,32.46,1007.80,2060.89,2823.39,2814.90,3067.17,350.72,329.11,11.54,0000 0000 0000 0000 000000
2014-03-28 02:05:10,0.19,1.89,0.00,16.44,21.67,24.81,6.06,32.50,1007.79,2060.88,2823.14,2814.58,3067.06,349.69,328.14,11.55,0000 0000 0000 0000 000000
2014-03-28 02:06:10,0.10,1.89,0.00,16.44,21.67,24.82,6.13,32.46,1007.81,2060.88,2823.04,2814.23,3067.00,350.17,328.76,11.55,0000 0000 0000 0000 000000
2014-03-28 02:07:10,0.10,1.89,0.00,16.44,21.68,24.82,6.18,32.50,1007.80,2060.89,2822.70,2814.09,3066.83,350.59,329.19,11.56,0000 0000 0000 0000 000000
2014-03-28 02:08:10,0.13,1.89,0.00,16.44,21.68,24.83,6.23,32.46,1007.79,2060.92,2822.29,2814.03,3066.39,349.81,328.78,11.56,0000 0000 0000 0000 000000
2014-03-28 02:09:10,0.22,1.89,0.00,16.44,21.68,24.83,6.08,32.38,1007.81,2060.90,2822.11,2814.00,3066.15,349.26,327.74,11.57,0000 0000 0000 0000 000000
2014-03-28 02:10:11,0.04,1.89,0.00,16.45,21.68,24.84,6.18,32.63,1007.81,2060.92,2822.03,2813.80,3066.05,350.25,328.65,11.58,0000 0000 0000 0000 000000
2014-03-28 02:11:11,0.09,1.89,0.00,16.45,21.69,24.83,6.13,32.54,1007.80,2060.93,2821.87,2813.39,3066.00,350.22,328.63,11.58,0000 0000 0000 0000 000000
2014-03-28 02:12:11,0.16,1.89,0.00,16.45,21.69,24.87,6.22,32.67,1007.80,2060.97,2821.42,2813.15,3065.91,350.47,329.09,11.59,0000 0000 0000 0000 000000
2014-03-28 02:13:12,0.17,1.89,0.00,16.45,21.69,24.86,5.92,32.42,1007.79,2060.96,2821.16,2813.05,3065.45,348.67,327.22,11.59,0000 0000 0000 0000 000000
2014-03-28 02:14:12,0.12,1.89,0.00,16.46,21.69,24.87,6.22,32.50,1007.77,2060.91,2820.99,2812.99,3065.17,350.72,329.17,11.60,0000 0000 0000 0000 000000
2014-03-28 02:15:12,0.05,1.89,0.00,16.47,21.69,24.87,6.13,32.54,1007.80,2060.88,2820.59,2812.86,3065.06,350.38,328.49,11.60,0000 0000 0000 0000 000000
2014-03-28 02:16:12,0.10,1.89,0.00,16.47,21.69,24.87,6.10,32.58,1007.80,2060.82,2820.22,2812.49,3064.97,349.52,327.98,11.61,0000 0000 0000 0000 000000
2014-03-28 02:17:12,0.12,1.89,0.00,16.47,21.69,24.90,6.05,32.58,1007.81,2060.78,2820.08,2812.19,3064.56,350.45,328.82,11.62,0000 0000 0000 0000 000000
2014-03-28 02:18:13,0.13,1.90,0.00,16.48,21.69,24.90,6.13,32.54,1007.83,2060.65,2819.96,2812.06,3064.22,349.41,327.85,11.62,0000 0000 0000 0000 000000
2014-03-28 02:19:13,-0.01,1.90,0.00,16.49,21.69,24.89,6.17,32.33,1007.83,2060.68,2819.54,2812.02,3064.08,350.05,328.42,11.63,0000 0000 0000 0000 000000
2014-03-28 02:20:13,0.13,1.90,0.00,16.49,21.69,24.90,6.21,32.63,1007.83,2060.65,2819.20,2811.96,3064.03,350.86,329.18,11.63,0000 0000 0000 0000 000000
2014-03-28 02:21:13,0.02,1.90,0.00,16.49,21.69,24.88,5.98,32.58,1007.82,2060.62,2819.06,2811.65,3064.00,350.08,328.45,11.64,0000 0000 0000 0000 000000
2014-03-28 02:22:13,0.17,1.90,0.00,16.49,21.69,24.90,6.14,32.63,1007.82,2060.64,2818.74,2811.26,3063.81,349.66,328.07,11.65,0000 0000 0000 0000 000000
2014-03-28 02:23:14,0.18,1.90,0.00,16.49,21.69,24.91,6.13,32.38,1007.82,2060.58,2818.29,2811.09,3063.41,350.13,328.50,11.65,0000 0000 0000 0000 000000
2014-03-28 02:24:14,0.09,1.90,0.00,16.49,21.69,24.89,6.08,32.50,1007.83,2060.56,2818.11,2811.03,3063.15,349.24,327.89,11.66,0000 0000 0000 0000 000000
2014-03-28 02:25:14,0.09,1.90,0.00,16.49,21.69,24.90,6.15,32.42,1007.83,2060.58,2818.01,2810.98,3063.05,349.51,327.85,11.66,0000 0000 0000 0000 000000
2014-03-28 02:26:14,0.07,1.90,0.00,16.49,21.69,24.89,6.24,32.63,1007.83,2060.56,2817.57,2810.67,3063.01,350.41,328.76,11.67,0000 0000 0000 0000 000000
2014-03-28 02:27:15,0.14,1.90,0.00,16.51,21.69,24.88,6.06,32.63,1007.82,2060.53,2817.22,2810.29,3062.69,349.74,328.11,11.68,0000 0000 0000 0000 000000
2014-03-28 02:28:15,0.17,1.90,0.00,16.52,21.69,24.88,6.01,32.54,1007.81,2060.54,2817.07,2810.11,3062.30,349.75,328.18,11.68,0000 0000 0000 0000 000000
2014-03-28 02:29:15,0.16,1.90,0.00,16.52,21.69,24.87,6.05,32.38,1007.83,2060.61,2816.86,2810.04,3062.11,349.27,328.21,11.69,0000 0000 0000 0000 000000
2014-03-28 02:30:15,0.13,1.90,0.00,16.52,21.69,24.92,6.18,32.58,1007.82,2060.54,2816.39,2809.91,3062.03,350.59,328.91,11.69,0000 0000 0000 0000 000000
2014-03-28 02:31:16,0.10,1.90,0.00,16.52,21.70,24.94,6.16,32.46,1007.82,2060.32,2816.14,2809.46,3061.75,350.54,328.75,11.70,0000 0000 0000 0000 000000
2014-03-28 02:32:16,-0.01,1.90,0.00,16.52,21.70,24.95,6.08,32.42,1007.83,2060.20,2816.02,2809.18,3061.34,349.37,327.93,11.70,0000 0000 0000 0000 000000
2014-03-28 02:33:16,0.07,1.90,0.00,16.52,21.70,24.90,5.99,32.33,1007.82,2060.28,2815.66,2809.06,3061.12,349.73,328.37,11.71,0000 0000 0000 0000 000000
2014-03-28 02:34:16,0.20,1.91,0.00,16.52,21.71,24.88,6.25,32.67,1007.83,2060.50,2815.27,2809.02,3061.04,350.75,329.42,11.72,0000 0000 0000 0000 000000
2014-03-28 02:35:17,0.29,1.91,0.00,16.53,21.71,24.89,6.14,32.33,1007.83,2060.60,2815.09,2808.98,3061.01,350.39,328.34,11.72,0000 0000 0000 0000 000000
2014-03-28 02:36:17,0.13,1.91,0.00,16.54,21.71,24.89,6.18,32.50,1007.83,2060.65,2814.86,2808.73,3060.93,350.79,329.29,11.73,0000 0000 0000 0000 000000